• In Hungary
  • List of Countries
  • For 7 days
  • Water Temperature
  • Satellite Maps
  • Weather Map
  • News
  • Weather Widgets
  • user-avatar
    Login

    Hourly Weather Charlotte

    Today, 13 December, Wednesday

    Time Temperature Precipitation Wind Pressure Humidity
    00:00 -2°C° 0 mm 3 mps 740 mmHg 53%
    01:00 -2°C° 0 mm 2 mps 740 mmHg 56%
    02:00 -2°C° 0 mm 2 mps 740 mmHg 55%
    03:00 -2°C° 0 mm 2 mps 740 mmHg 53%
    04:00 -3°C° 0 mm 2 mps 741 mmHg 52%
    05:00 -3°C° 0 mm 2 mps 741 mmHg 50%
    06:00 -3°C° 0 mm 2 mps 742 mmHg 48%
    07:00 -1°C° 0 mm 1 mps 742 mmHg 52%
    08:00 0°C° 0 mm 1 mps 742 mmHg 44%
    09:00 +1°C° 0 mm 2 mps 742 mmHg 36%
    10:00 +2°C° 0 mm 2 mps 742 mmHg 27%
    11:00 +2°C° 0 mm 3 mps 742 mmHg 28%
    12:00 +4°C° 0 mm 3 mps 741 mmHg 28%
    13:00 +5°C° 0 mm 3 mps 740 mmHg 28%
    14:00 +5°C° 0 mm 4 mps 740 mmHg 31%
    15:00 +6°C° 0 mm 4 mps 739 mmHg 35%
    16:00 +6°C° 0 mm 5 mps 738 mmHg 38%
    17:00 +5°C° 0 mm 5 mps 738 mmHg 41%
    18:00 +3°C° 0 mm 5 mps 738 mmHg 44%
    19:00 +2°C° 0 mm 5 mps 738 mmHg 46%
    20:00 +2°C° 0 mm 5 mps 737 mmHg 45%
    21:00 +2°C° 0 mm 5 mps 737 mmHg 44%
    22:00 +2°C° 0 mm 6 mps 737 mmHg 43%
    23:00 +2°C° 0 mm 6 mps 737 mmHg 45%

    Tomorrow, 14 December, Thursday

    Time Temperature Precipitation Wind Pressure Humidity
    00:00 +2°C° 0 mm 5 mps 736 mmHg 48%
    01:00 +2°C° 0 mm 5 mps 736 mmHg 50%
    02:00 +2°C° 0 mm 5 mps 736 mmHg 54%
    03:00 +2°C° 0 mm 5 mps 736 mmHg 58%
    04:00 +1°C° 0 mm 4 mps 736 mmHg 61%
    05:00 +1°C° 0 mm 4 mps 736 mmHg 65%
    06:00 +2°C° 0 mm 3 mps 737 mmHg 69%
    07:00 +1°C° 0 mm 3 mps 737 mmHg 74%
    08:00 +3°C° 0 mm 3 mps 738 mmHg 69%
    09:00 +4°C° 0 mm 3 mps 738 mmHg 64%
    10:00 +7°C° 0 mm 2 mps 739 mmHg 59%
    11:00 +8°C° 0 mm 2 mps 739 mmHg 54%
    12:00 +9°C° 0 mm 2 mps 739 mmHg 49%
    13:00 +10°C° 0 mm 2 mps 739 mmHg 44%
    14:00 +10°C° 0 mm 2 mps 740 mmHg 45%
    15:00 +11°C° 0 mm 1 mps 740 mmHg 47%
    16:00 +11°C° 0 mm 1 mps 740 mmHg 48%
    17:00 +9°C° 0 mm 1 mps 740 mmHg 53%
    18:00 +8°C° 0 mm 1 mps 741 mmHg 59%
    19:00 +6°C° 0 mm 1 mps 741 mmHg 64%
    20:00 +4°C° 0 mm 2 mps 742 mmHg 67%
    21:00 +3°C° 0 mm 2 mps 742 mmHg 69%
    22:00 +3°C° 0 mm 2 mps 742 mmHg 71%
    23:00 +2°C° 0 mm 2 mps 743 mmHg 71%

    Day after tomorrow, 15 December, Friday

    Time Temperature Precipitation Wind Pressure Humidity
    00:00 +2°C° 0 mm 2 mps 743 mmHg 72%
    01:00 +1°C° 0 mm 2 mps 743 mmHg 72%
    02:00 +1°C° 0 mm 2 mps 743 mmHg 72%
    03:00 +1°C° 0 mm 2 mps 743 mmHg 72%
    04:00 -1°C° 0 mm 2 mps 743 mmHg 72%
    05:00 -1°C° 0 mm 2 mps 743 mmHg 71%
    06:00 -1°C° 0 mm 2 mps 743 mmHg 71%
    07:00 -1°C° 0 mm 2 mps 743 mmHg 70%
    08:00 +1°C° 0 mm 2 mps 743 mmHg 66%
    09:00 +3°C° 0 mm 1 mps 743 mmHg 61%
    10:00 +4°C° 0 mm 1 mps 743 mmHg 56%
    11:00 +5°C° 0 mm 1 mps 743 mmHg 54%
    12:00 +6°C° 0 mm 1 mps 742 mmHg 52%
    13:00 +7°C° 0 mm 2 mps 742 mmHg 50%
    14:00 +7°C° 0 mm 2 mps 742 mmHg 51%
    15:00 +7°C° 0 mm 2 mps 742 mmHg 52%
    16:00 +7°C° 0 mm 2 mps 741 mmHg 54%
    17:00 +6°C° 0 mm 2 mps 742 mmHg 58%
    18:00 +5°C° 0 mm 2 mps 743 mmHg 62%
    19:00 +5°C° 0 mm 1 mps 743 mmHg 65%
    20:00 +4°C° 0 mm 1 mps 744 mmHg 66%
    21:00 +4°C° 0 mm 1 mps 744 mmHg 67%
    22:00 +3°C° 0 mm 1 mps 745 mmHg 68%
    23:00 +2°C° 0 mm 1 mps 745 mmHg 67%

    16 December, Saturday

    Time Temperature Precipitation Wind Pressure Humidity
    00:00 +2°C° 0 mm 1 mps 745 mmHg 67%
    01:00 +2°C° 0 mm 1 mps 745 mmHg 66%
    02:00 +2°C° 0 mm 1 mps 745 mmHg 66%
    03:00 +1°C° 0 mm 1 mps 745 mmHg 66%
    04:00 +1°C° 0 mm 1 mps 746 mmHg 66%
    05:00 +1°C° 0 mm 1 mps 746 mmHg 66%
    06:00 +1°C° 0 mm 1 mps 746 mmHg 67%
    07:00 +1°C° 0 mm 1 mps 747 mmHg 67%
    08:00 +3°C° 0 mm 1 mps 747 mmHg 61%
    09:00 +5°C° 0 mm 1 mps 748 mmHg 54%
    10:00 +7°C° 0 mm 1 mps 748 mmHg 48%
    11:00 +8°C° 0 mm 1 mps 748 mmHg 45%
    12:00 +9°C° 0 mm 2 mps 747 mmHg 43%
    13:00 +10°C° 0 mm 2 mps 747 mmHg 40%
    14:00 +10°C° 0 mm 2 mps 747 mmHg 42%
    15:00 +10°C° 0 mm 2 mps 747 mmHg 44%
    16:00 +10°C° 0 mm 2 mps 747 mmHg 45%
    17:00 +8°C° 0 mm 2 mps 747 mmHg 51%
    18:00 +8°C° 0 mm 1 mps 748 mmHg 56%
    19:00 +6°C° 0 mm 1 mps 748 mmHg 61%
    20:00 +6°C° 0 mm 1 mps 749 mmHg 62%
    21:00 +5°C° 0 mm 1 mps 749 mmHg 64%
    22:00 +5°C° 0 mm 1 mps 750 mmHg 65%
    23:00 +4°C° 0 mm 1 mps 750 mmHg 67%

    17 December, Sunday

    Time Temperature Precipitation Wind Pressure Humidity
    00:00 +4°C° 0 mm 1 mps 750 mmHg 68%
    01:00 +4°C° 0 mm 1 mps 750 mmHg 69%
    02:00 +3°C° 0 mm 0 mps 750 mmHg 71%
    03:00 +2°C° 0 mm 0 mps 750 mmHg 72%
    04:00 +2°C° 0 mm 0 mps 750 mmHg 74%
    05:00 +2°C° 0 mm 0 mps 750 mmHg 75%
    06:00 +2°C° 0 mm 0 mps 750 mmHg 77%
    07:00 +1°C° 0 mm 0 mps 750 mmHg 78%
    08:00 +3°C° 0 mm 0 mps 751 mmHg 72%
    09:00 +6°C° 0 mm 1 mps 751 mmHg 66%
    10:00 +8°C° 0 mm 1 mps 751 mmHg 60%
    11:00 +9°C° 0 mm 1 mps 751 mmHg 57%
    12:00 +9°C° 0 mm 2 mps 750 mmHg 53%
    13:00 +12°C° 0 mm 2 mps 749 mmHg 50%
    14:00 +12°C° 0 mm 2 mps 749 mmHg 51%
    15:00 +12°C° 0 mm 2 mps 749 mmHg 52%
    16:00 +12°C° 0 mm 1 mps 749 mmHg 53%
    17:00 +11°C° 0 mm 1 mps 749 mmHg 55%
    18:00 +11°C° 0 mm 1 mps 749 mmHg 58%
    19:00 +10°C° 0 mm 1 mps 749 mmHg 60%
    20:00 +10°C° 0 mm 1 mps 749 mmHg 61%
    21:00 +10°C° 0 mm 1 mps 749 mmHg 61%
    22:00 +10°C° 0 mm 1 mps 749 mmHg 61%
    23:00 +9°C° 0 mm 1 mps 748 mmHg 62%

    18 December, Monday

    Time Temperature Precipitation Wind Pressure Humidity
    00:00 +9°C° 0 mm 1 mps 748 mmHg 64%
    01:00 +8°C° 0 mm 2 mps 748 mmHg 65%
    02:00 +7°C° 0 mm 2 mps 748 mmHg 66%
    03:00 +8°C° 0 mm 1 mps 747 mmHg 68%
    04:00 +7°C° 0 mm 1 mps 747 mmHg 70%
    05:00 +7°C° 0 mm 1 mps 747 mmHg 70%
    06:00 +7°C° 0 mm 1 mps 747 mmHg 71%
    07:00 +7°C° 0 mm 1 mps 747 mmHg 71%
    08:00 +9°C° 0 mm 1 mps 748 mmHg 67%
    09:00 +10°C° 0 mm 1 mps 748 mmHg 62%
    10:00 +12°C° 0 mm 1 mps 748 mmHg 58%
    11:00 +13°C° 0 mm 1 mps 747 mmHg 59%
    12:00 +14°C° 0 mm 2 mps 747 mmHg 59%
    13:00 +15°C° 0 mm 2 mps 747 mmHg 60%
    14:00 +14°C° 0.2 mm 2 mps 746 mmHg 67%
    15:00 +14°C° 0.2 mm 2 mps 746 mmHg 73%
    16:00 +13°C° 0.2 mm 2 mps 745 mmHg 79%
    17:00 +12°C° 0 mm 1 mps 745 mmHg 84%
    18:00 +11°C° 0 mm 1 mps 746 mmHg 89%
    19:00 +11°C° 0 mm 1 mps 746 mmHg 93%
    20:00 +11°C° 0 mm 1 mps 746 mmHg 94%
    21:00 +11°C° 0 mm 1 mps 746 mmHg 95%
    22:00 +11°C° 0 mm 1 mps 746 mmHg 95%
    23:00 +11°C° 0 mm 1 mps 745 mmHg 96%
    Show more